EW7946 Weather Reports


time (UTC)temp
C
wind
direction
speed
KPH
gust
KPH
rain 1hr
cm
rain 24hr
cm
rain mn
cm
humidity
%
barometer
mb
20260507103347 22 198 9.7 22.5 0.00 0.89 0.15 55 1013.4
20260507102330 22 170 9.7 20.9 0.00 0.89 0.15 57 1013.5
20260507101323 21 304 3.2 17.7 0.00 0.89 0.15 56 1013.4
20260507100347 21 178 6.4 22.5 0.00 0.89 0.15 56 1013.6
20260507095348 21 238 11.3 19.3 0.00 0.89 0.15 58 1013.6
20260507094336 20 233 11.3 22.5 0.00 0.89 0.15 59 1013.7
20260507093348 20 195 14.5 25.7 0.10 0.89 0.15 60 1013.8
20260507092348 20 232 4.8 11.3 0.20 0.89 0.15 59 1013.8
20260507091320 19 265 4.8 8.0 0.20 0.89 0.15 52 1013.9
20260507090350 18 262 4.8 8.0 0.20 0.89 0.15 49 1013.8
20260507085321 19 240 4.8 9.7 0.20 0.89 0.15 45 1014.1
20260507084333 19 242 4.8 12.9 0.20 0.89 0.15 47 1013.8
20260507083353 19 300 3.2 14.5 0.10 0.79 0.13 49 1013.8
20260507082324 20 328 6.4 14.5 0.00 0.71 0.10 56 1013.6
20260507081319 20 253 11.3 19.3 0.00 0.71 0.10 58 1013.5
20260507080410 20 197 3.2 9.7 0.00 0.71 0.10 50 1013.4
20260507075329 20 112 4.8 9.7 0.00 0.79 0.10 47 1013.5
20260507074359 20 88 0.0 11.3 0.00 0.79 0.10 46 1013.6
20260507073349 20 215 4.8 9.7 0.00 0.79 0.10 49 1013.5
20260507072350 19 108 3.2 9.7 0.00 0.79 0.10 42 1013.5
20260507071347 19 221 3.2 8.0 0.00 0.79 0.10 32 1013.5
20260507070354 18 210 1.6 9.7 0.00 0.79 0.10 10 1013.5
20260507064401 17 236 3.2 8.0 0.00 1.40 0.10 1 1013.3
20260507063354 17 221 1.6 6.4 0.00 1.40 0.10 1 1013.2
20260507062334 17 268 1.6 8.0 0.00 1.40 0.10 1 1013.2
20260507061319 17 234 1.6 6.4 0.00 1.40 0.10 1 1013.2
20260507060353 16 257 1.6 3.2 0.00 1.40 0.10 1 1013.2
20260507055348 16 205 0.0 0.0 0.00 1.40 0.10 1 1013.1
20260507054320 16 205 0.0 0.0 0.00 1.40 0.10 1 1013.2
20260507053336 16 205 0.0 1.6 0.00 1.40 0.10 1 1013.1
20260507052342 16 205 0.0 3.2 0.00 1.40 0.10 1 1013.0
20260507051348 16 205 1.6 3.2 0.00 1.40 0.10 1 1013.0
20260507050333 16 195 1.6 4.8 0.00 1.40 0.10 1 1012.9
20260507045350 -17 0.0 0.0 0.00 1.40 0.10 1012.8
20260507044346 -17 0.0 0.0 0.00 1.40 0.10 1012.7
20260507042339 -17 0.0 0.0 0.00 1.40 0.10 1012.3
20260507041403 -17 0.0 0.0 0.10 1.40 0.10 1012.5
20260507040333 -17 0.0 0.0 0.10 1.40 0.10 1012.4
20260507035334 -17 0.0 0.0 0.20 1.40 0.10 1012.2
20260507033336 -17 0.0 0.0 0.30 1.40 0.10 1012.1
20260507031351 16 144 0.0 0.0 0.30 1.30 0.08 6 1012.2
20260507030358 16 144 0.0 3.2 0.41 1.30 0.08 12 1012.2
20260507025330 17 120 1.6 3.2 0.30 1.19 0.05 18 1012.2
20260507024323 17 153 0.0 4.8 0.20 1.09 0.05 23 1012.1
20260507023339 17 239 0.0 6.4 0.20 1.09 0.05 27 1012.0
20260507022342 17 257 3.2 8.0 0.10 0.99 0.03 29 1011.7
20260507021331 17 290 3.2 8.0 0.10 0.99 0.03 31 1011.6
20260507020343 17 231 0.0 0.0 0.00 0.89 0.00 32 1011.7
20260507015342 17 242 0.0 3.2 0.00 0.89 0.00 33 1011.8
20260507014334 17 238 3.2 6.4 0.00 0.89 0.00 33 1011.8
20260507013342 17 234 3.2 6.4 0.00 0.89 0.00 34 1011.8
20260507012345 17 232 0.0 0.0 0.00 0.89 0.00 36 1011.7
20260507011318 17 232 0.0 3.2 0.00 0.89 0.00 38 1011.7
20260507010354 17 232 0.0 4.8 0.00 0.89 0.00 38 1011.6
20260507004343 17 146 1.6 3.2 0.00 0.89 0.00 41 1011.7
20260507003346 17 129 0.0 1.6 0.00 0.89 0.00 44 1011.7
20260507002330 17 129 1.6 3.2 0.00 0.89 0.00 46 1011.7
20260507001329 18 238 0.0 3.2 0.00 0.89 0.00 48 1011.8
20260507000335 18 177 1.6 3.2 0.00 0.89 0.00 51 1011.8
20260506235335 18 113 0.0 0.0 0.00 0.89 0.00 54 1011.8
20260506234321 18 36 0.0 0.0 0.00 0.89 0.00 56 1011.9
20260506233401 18 289 0.0 0.0 0.00 0.89 0.00 58 1011.9
20260506232344 18 201 0.0 0.0 0.00 0.89 0.00 58 1011.8
20260506231323 18 201 1.6 4.8 0.00 0.89 0.00 59 1011.7
20260506230336 18 240 1.6 6.4 0.00 0.89 0.00 59 1011.8
20260506225319 18 218 3.2 6.4 0.00 0.89 0.00 59 1011.8
20260506224402 18 247 0.0 3.2 0.00 0.89 0.00 58 1011.9
20260506223337 18 150 0.0 3.2 0.00 0.89 0.00 58 1012.0
20260506221331 18 144 1.6 6.4 0.00 0.89 0.00 57 1012.0
20260506220348 18 126 3.2 8.0 0.00 0.89 0.00 58 1012.0
20260506215340 18 195 3.2 8.0 0.00 0.89 0.18 59 1011.9
20260506214329 18 274 1.6 6.4 0.00 0.89 0.18 60 1011.9
20260506213333 18 209 1.6 12.9 0.00 0.89 0.18 60 1011.7
20260506212324 18 212 6.4 11.3 0.00 0.89 0.18 60 1011.7
20260506211322 18 233 4.8 11.3 0.00 0.89 0.18 60 1011.9
20260506210332 18 195 3.2 6.4 0.00 0.89 0.18 59 1011.9
20260506205321 18 196 3.2 14.5 0.00 0.89 0.18 59 1012.0
20260506204320 18 214 4.8 16.1 0.00 0.89 0.18 58 1011.8
20260506203340 18 217 4.8 16.1 0.00 0.89 0.18 55 1011.8
20260506202343 18 207 6.4 20.9 0.00 0.89 0.18 50 1011.7
20260506201341 18 227 9.7 19.3 0.00 0.89 0.18 42 1011.8
20260506200332 18 139 1.6 3.2 0.00 0.89 0.18 33 1011.8
20260506195322 18 106 0.0 4.8 0.00 0.89 0.18 34 1011.8
20260506194323 18 94 1.6 4.8 0.00 0.89 0.18 36 1011.7
20260506193349 18 135 1.6 6.4 0.00 0.89 0.18 35 1011.5
20260506192343 18 235 1.6 3.2 0.00 0.89 0.18 34 1011.4
20260506191345 18 224 1.6 9.7 0.00 0.89 0.18 33 1011.4
20260506190355 18 127 3.2 8.0 0.00 0.89 0.18 33 1011.2
20260506185321 18 140 0.0 9.7 0.00 0.89 0.18 37 1011.1
20260506184322 18 101 4.8 9.7 0.00 0.89 0.18 38 1010.9
20260506183348 18 217 0.0 6.4 0.00 0.89 0.18 39 1010.7
20260506182321 18 233 1.6 4.8 0.00 0.89 0.18 39 1010.7
20260506181322 18 206 1.6 4.8 0.00 0.89 0.18 39 1010.8
20260506180333 18 216 0.0 4.8 0.00 0.89 0.18 38 1010.8
20260506175326 18 153 3.2 6.4 0.00 0.89 0.18 36 1010.8
20260506174329 18 117 1.6 9.7 0.00 0.89 0.18 32 1010.7
20260506173338 18 123 4.8 9.7 0.10 0.89 0.18 27 1010.7
20260506172333 18 173 1.6 6.4 0.20 0.89 0.18 22 1010.6
20260506171324 18 127 1.6 6.4 0.20 0.89 0.18 21 1010.4
20260506170331 18 137 3.2 6.4 0.20 0.89 0.18 21 1010.5
20260506165348 18 120 3.2 4.8 0.20 0.89 0.18 20 1010.6
20260506164323 18 162 3.2 17.7 0.20 0.89 0.18 27 1010.6
20260506163407 20 222 8.0 22.5 0.10 0.79 0.15 6 1010.9
20260506162356 19 128 6.4 9.7 0.00 0.71 0.15 1 1010.6
20260506161325 19 49 9.7 14.5 0.00 0.71 0.15 1 1010.4
20260506160414 19 97 4.8 14.5 0.00 0.71 0.15 1 1010.5
20260506155408 19 39 8.0 16.1 0.00 0.71 0.15 1 1010.6
20260506154326 19 106 3.2 6.4 0.00 0.71 0.15 1 1010.4
20260506153355 19 86 6.4 14.5 0.00 0.71 0.15 1 1010.4
20260506152330 19 70 11.3 17.7 0.00 0.71 0.15 1 1010.4
20260506151341 19 98 9.7 17.7 0.00 0.71 0.15 1 1010.5
20260506150408 19 114 9.7 19.3 0.00 0.71 0.15 1 1010.3
20260506145333 19 91 11.3 20.9 0.00 0.71 0.15 1 1010.3
20260506144347 20 94 8.0 17.7 0.00 0.71 0.15 7 1010.4
20260506143335 20 104 6.4 14.5 0.00 0.71 0.15 6 1010.3
20260506142350 19 102 8.0 12.9 0.00 0.71 0.15 2 1010.3
20260506141334 19 105 9.7 17.7 0.00 0.71 0.15 1 1010.4
20260506140356 19 76 8.0 14.5 0.00 0.71 0.15 1 1010.4
20260506135353 19 98 9.7 14.5 0.00 0.71 0.15 1 1010.6
20260506134342 19 32 3.2 11.3 0.00 0.71 0.15 1 1010.7
20260506133332 19 60 8.0 14.5 0.00 0.71 0.15 1 1010.8
20260506132331 19 94 9.7 17.7 0.00 0.71 0.15 3 1010.8
20260506131339 20 88 9.7 16.1 0.00 0.71 0.15 7 1011.0
20260506130330 19 59 9.7 19.3 0.00 0.71 0.15 1 1011.1
20260506125342 19 49 11.3 19.3 0.00 0.71 0.15 1 1011.1
20260506124326 18 98 9.7 14.5 0.00 0.71 0.15 1 1011.3
20260506123358 19 59 9.7 19.3 0.00 0.71 0.15 3 1011.2
20260506122321 19 89 8.0 14.5 0.00 0.71 0.15 1 1011.2
20260506121323 18 88 6.4 17.7 0.00 0.71 0.15 1 1011.2
20260506120351 18 96 11.3 19.3 0.00 0.71 0.15 1 1011.1
20260506115334 18 94 4.8 9.7 0.00 0.71 0.15 1 1011.1
20260506114327 18 69 3.2 16.1 0.00 0.71 0.15 1 1011.2
20260506113334 18 103 9.7 16.1 0.00 0.71 0.15 1 1011.1
20260506112342 18 94 11.3 20.9 0.00 0.71 0.15 1 1011.2
20260506111323 18 90 11.3 22.5 0.00 0.71 0.15 1 1011.1
20260506110335 18 60 14.5 25.7 0.00 0.71 0.15 1 1011.2
20260506105333 18 60 12.9 20.9 0.00 0.71 0.15 1 1011.3
20260506104343 18 44 12.9 20.9 0.00 0.71 0.15 1 1011.4